Location: Hermaringen
(48.5952°N, 10.2585°E)
Time: 18:28:02
(UTC+00:00)

Courier 1B - All Passes

Search period start: 16 February 2026 00:00
Search period end: 26 February 2026 00:00
Orbit: 962 x 1208 km, 28.3° (Epoch: 16 February)

Date Brightness Start Highest point End Pass type
(mag) Time Alt. Az. Time Alt. Az. Time Alt. Az.
16 Feb - 20:46:01 10° SSW 20:50:05 15° S 20:54:11 10° SE visible
16 Feb - 22:39:02 10° SW 22:42:52 14° S 22:46:44 10° SSE night (unlit)
17 Feb - 19:52:53 10° SSW 19:56:26 14° S 20:00:02 10° SE visible
17 Feb - 21:45:06 10° SW 21:49:13 15° S 21:53:21 10° SSE night (unlit)
18 Feb - 19:00:11 10° S 19:02:49 12° SSE 19:05:29 10° SE visible
18 Feb - 20:51:24 10° SW 20:55:32 15° S 20:59:45 10° SSE visible
18 Feb - 22:45:58 10° SW 22:48:18 11° SSW 22:50:38 10° S night (unlit)
19 Feb - 19:57:56 10° SSW 20:01:53 15° S 20:05:55 10° SE visible
19 Feb - 21:51:25 10° SW 21:54:39 13° SSW 21:57:55 10° SSE night (unlit)
20 Feb - 19:04:43 10° SSW 19:08:16 14° S 19:11:53 10° SE visible
20 Feb - 20:57:22 10° SW 21:01:00 14° S 21:04:43 10° SSE visible
21 Feb - 18:11:50 10° SSW 18:14:40 13° SSE 18:17:33 10° SE visible
21 Feb - 20:03:36 10° SW 20:07:22 15° S 20:11:13 10° SSE visible
22 Feb - 17:19:45 10° S 17:21:07 11° SSE 17:22:29 10° SSE visible
22 Feb - 19:10:04 10° SSW 19:13:44 15° S 19:17:30 10° SSE visible
22 Feb - 21:04:21 10° SSW 21:06:27 11° SSW 21:08:35 10° S visible
23 Feb - 18:16:46 10° SSW 18:20:09 14° S 18:23:36 10° SSE visible
23 Feb - 20:10:00 10° SSW 20:12:51 13° S 20:15:46 10° SSE visible
24 Feb - 17:23:46 10° SSW 17:26:34 13° S 17:29:26 10° SSE visible
24 Feb - 19:16:04 10° SSW 19:19:15 13° S 19:22:29 10° SSE visible
25 Feb - 16:31:16 10° S 16:33:02 11° SSE 16:34:50 10° SSE daylight
25 Feb - 18:22:27 10° SSW 18:25:39 14° S 18:28:56 10° SSE visible
